F6JSP-13 Weather Reports


time (UTC)temp
C
wind
direction
speed
KPH
gust
KPH
rain 1hr
cm
rain 24hr
cm
rain mn
cm
humidity
%
barometer
mb
20260510055005 14 69 9.7 22.5 0.00 0.00 0.00 88 1006.0
20260510054504 14 70 12.9 22.5 0.00 0.00 0.00 88 1006.1
20260510054005 14 73 11.3 22.5 0.00 0.00 0.00 88 1006.1
20260510053504 14 68 8.0 14.5 0.00 0.00 0.00 89 1006.1
20260510053010 14 59 4.8 12.9 0.00 0.00 0.00 89 1006.0
20260510052505 14 53 3.2 9.7 0.00 0.00 0.00 89 1005.9
20260510051504 14 47 3.2 11.3 0.00 0.00 0.00 89 1006.0
20260510051005 14 67 4.8 16.1 0.00 0.00 0.00 89 1005.8
20260510050505 14 69 8.0 19.3 0.00 0.00 0.00 89 1006.2
20260510050005 14 66 6.4 12.9 0.00 0.00 0.00 89 1006.1
20260510044504 14 31 3.2 11.3 0.00 0.00 0.00 90 1006.1
20260510043504 13 59 4.8 11.3 0.00 0.00 0.00 90 1006.3
20260510043005 13 58 3.2 9.7 0.00 0.00 0.00 90 1006.1
20260510042505 14 66 4.8 11.3 0.00 0.00 0.00 90 1006.2
20260510042005 14 76 4.8 12.9 0.00 0.00 0.00 89 1006.3
20260510041504 14 63 3.2 12.9 0.00 0.00 0.00 89 1006.2
20260510040505 14 61 4.8 12.9 0.00 0.00 0.00 89 1006.4
20260510035504 14 59 4.8 14.5 0.00 0.00 0.00 89 1006.2
20260510035005 14 66 4.8 14.5 0.00 0.00 0.00 89 1006.5
20260510034504 14 56 6.4 14.5 0.00 0.00 0.00 89 1006.2
20260510034004 14 65 4.8 14.5 0.00 0.00 0.00 89 1006.5
20260510033504 14 51 3.2 9.7 0.00 0.00 0.00 89 1006.4
20260510033005 14 65 1.6 8.0 0.00 0.00 0.00 89 1006.5
20260510032504 14 16 1.6 8.0 0.00 0.00 0.00 89 1006.6
20260510032005 14 29 1.6 9.7 0.00 0.00 0.00 88 1006.5
20260510031504 14 31 0.0 4.8 0.00 0.00 0.00 88 1006.7
20260510031004 14 6 1.6 4.8 0.00 0.00 0.00 88 1006.6
20260510030504 14 44 1.6 8.0 0.00 0.00 0.00 87 1006.7
20260510025504 14 8 4.8 12.9 0.00 0.00 0.00 87 1006.7
20260510025005 14 357 3.2 12.9 0.00 0.00 0.00 87 1006.7
20260510024504 14 10 1.6 9.7 0.00 0.00 0.00 87 1006.8
20260510024005 14 11 3.2 14.5 0.00 0.00 0.00 88 1007.1
20260510023505 14 7 8.0 14.5 0.00 0.00 0.00 88 1007.0
20260510023005 14 5 3.2 11.3 0.00 0.00 0.00 88 1006.7
20260510022504 14 9 3.2 8.0 0.00 0.00 0.00 88 1006.8
20260510022004 14 13 3.2 8.0 0.00 0.00 0.00 88 1006.9
20260510021504 14 35 4.8 9.7 0.00 0.00 0.00 88 1007.0
20260510021005 15 37 4.8 14.5 0.00 0.00 0.00 89 1007.2
20260510020504 15 339 6.4 14.5 0.00 0.00 0.00 89 1007.0
20260510020005 14 9 3.2 11.3 0.00 0.00 0.00 90 1007.0
20260510015504 15 36 1.6 8.0 0.00 0.00 0.00 90 1007.2
20260510015005 15 55 1.6 11.3 0.00 0.00 0.00 90 1007.3
20260510014505 14 50 6.4 12.9 0.00 0.00 0.00 91 1007.3
20260510014005 14 77 4.8 9.7 0.00 0.00 0.00 91 1007.1
20260510013504 14 67 4.8 14.5 0.00 0.00 0.00 90 1007.2
20260510013005 15 10 8.0 19.3 0.00 0.00 0.00 90 1007.1
20260510012005 15 2 9.7 19.3 0.00 0.00 0.00 90 1006.9
20260510011505 15 9 8.0 14.5 0.00 0.00 0.00 90 1007.2
20260510011005 15 4 8.0 16.1 0.00 0.00 0.00 89 1007.2
20260510010504 15 3 4.8 14.5 0.00 0.00 0.00 89 1007.3
20260510010005 15 4 4.8 14.5 0.00 0.00 0.00 89 1007.3
20260510005504 15 15 4.8 12.9 0.00 0.00 0.00 88 1007.2
20260510005004 15 10 8.0 16.1 0.00 0.00 0.00 88 1007.1
20260510004505 15 14 8.0 16.1 0.00 0.00 0.00 87 1007.2
20260510004004 15 7 8.0 19.3 0.00 0.00 0.00 87 1007.2
20260510003504 15 11 8.0 14.5 0.00 0.00 0.00 87 1007.2
20260510003005 15 7 8.0 14.5 0.00 0.00 0.00 86 1007.3
20260510002505 15 7 4.8 12.9 0.00 0.00 0.00 86 1007.2
20260510002005 15 10 8.0 14.5 0.00 0.00 0.00 86 1007.4
20260510001005 15 6 8.0 12.9 0.00 0.00 0.00 85 1007.7
20260510000505 15 3 8.0 14.5 0.00 0.00 0.00 84 1007.6
20260510000005 15 8 4.8 12.9 0.00 0.00 0.00 84 1007.5
20260509235504 15 14 6.4 16.1 0.00 0.00 0.00 83 1007.6
20260509235005 15 7 9.7 16.1 0.00 0.00 0.00 83 1008.0
20260509234504 15 358 6.4 12.9 0.00 0.00 0.00 83 1007.8
20260509234005 15 1 4.8 11.3 0.00 0.00 0.00 82 1007.8
20260509233005 15 15 6.4 14.5 0.00 0.00 0.00 82 1008.1
20260509232506 15 10 6.4 12.9 0.00 0.00 0.00 82 1007.9
20260509231505 15 14 6.4 14.5 0.00 0.00 0.00 81 1008.2
20260509231005 15 5 11.3 19.3 0.00 0.00 0.00 80 1008.0
20260509230504 15 354 8.0 19.3 0.00 0.00 0.00 80 1008.4
20260509230004 15 357 9.7 20.9 0.00 0.00 0.00 80 1008.3
20260509225505 16 357 11.3 22.5 0.00 0.00 0.00 80 1008.1
20260509225005 16 1 11.3 24.1 0.00 0.00 0.00 79 1008.3
20260509224504 16 349 9.7 24.1 0.00 0.00 0.00 79 1007.9
20260509224004 16 3 11.3 19.3 0.00 0.00 0.00 79 1008.3
20260509223504 16 350 9.7 24.1 0.00 0.00 0.00 79 1008.1
20260509223004 16 351 9.7 22.5 0.00 0.00 0.00 79 1008.4
20260509222504 16 358 11.3 24.1 0.00 0.00 0.00 79 1008.3
20260509222005 16 357 11.3 24.1 0.00 0.00 0.00 80 1008.2
20260509221505 16 3 8.0 24.1 0.00 0.00 0.00 80 1008.3
20260509221004 16 0 9.7 20.9 0.00 0.00 0.00 80 1008.2
20260509220504 16 357 8.0 19.3 0.00 0.00 0.00 80 1008.1
20260509220004 16 341 9.7 20.9 0.00 0.00 0.00 81 1008.5
20260509215005 16 350 8.0 20.9 0.00 0.00 0.00 81 1008.2
20260509214504 16 344 6.4 12.9 0.00 0.00 0.00 82 1008.3
20260509214004 16 350 8.0 20.9 0.00 0.00 0.00 82 1008.1
20260509213504 16 352 8.0 16.1 0.00 0.00 0.00 82 1008.3
20260509213005 16 336 4.8 11.3 0.00 0.00 0.00 83 1008.3
20260509212504 16 358 3.2 9.7 0.00 0.00 0.00 84 1008.2
20260509212004 16 335 4.8 11.3 0.00 0.00 0.00 83 1008.3
20260509211504 16 332 8.0 11.3 0.00 0.00 0.00 83 1008.1
20260509210504 16 324 4.8 12.9 0.00 0.00 0.00 82 1008.0
20260509210004 17 338 6.4 14.5 0.00 0.00 0.00 82 1008.2
20260509205504 17 340 4.8 12.9 0.00 0.00 0.00 81 1008.2
20260509204505 17 325 3.2 12.9 0.00 0.00 0.00 80 1008.4
20260509203504 17 340 3.2 11.3 0.00 0.00 0.00 80 1008.3
20260509203004 17 350 3.2 9.7 0.00 0.00 0.00 80 1008.1
20260509202504 17 325 4.8 14.5 0.00 0.00 0.00 79 1008.2
20260509202005 17 328 6.4 14.5 0.00 0.00 0.00 78 1008.4
20260509201505 17 357 6.4 11.3 0.00 0.00 0.00 79 1008.1
20260509201006 17 316 3.2 8.0 0.00 0.00 0.00 79 1008.2
20260509200506 17 337 3.2 4.8 0.00 0.00 0.00 77 1007.9
20260509200006 17 340 1.6 4.8 0.00 0.00 0.00 77 1008.2
20260509195506 17 337 3.2 4.8 0.00 0.00 0.00 76 1007.9
20260509195007 17 338 1.6 8.0 0.00 0.00 0.00 76 1007.7
20260509194505 18 332 3.2 8.0 0.00 0.00 0.00 75 1007.7
20260509194007 18 338 1.6 4.8 0.00 0.00 0.00 75 1007.7
20260509193506 18 330 1.6 4.8 0.00 0.00 0.00 74 1007.4
20260509193006 19 352 1.6 4.8 0.00 0.00 0.00 73 1007.5
20260509192507 19 8 4.8 4.8 0.00 0.00 0.00 71 1007.4
20260509191505 20 54 1.6 4.8 0.00 0.00 0.00 66 1007.3
20260509191006 20 75 3.2 4.8 0.00 0.00 0.00 65 1007.1
20260509190506 21 72 3.2 3.2 0.00 0.00 0.00 63 1007.3
20260509185506 21 95 3.2 4.8 0.00 0.00 0.00 57 1007.2
20260509185006 21 101 4.8 8.0 0.00 0.00 0.00 57 1007.2
20260509184506 21 105 3.2 8.0 0.00 0.00 0.00 57 1007.3
20260509183506 22 86 4.8 9.7 0.00 0.00 0.00 58 1007.2
20260509183006 21 87 4.8 8.0 0.00 0.00 0.00 59 1007.4
20260509182505 22 88 4.8 8.0 0.00 0.00 0.00 58 1007.1
20260509182006 22 88 3.2 4.8 0.00 0.00 0.00 57 1006.9
20260509180506 22 109 3.2 9.7 0.00 0.00 0.00 56 1006.8
20260509180005 22 99 6.4 11.3 0.00 0.00 0.00 55 1007.2
20260509175505 22 87 8.0 16.1 0.00 0.00 0.00 54 1007.1
20260509175006 22 85 8.0 12.9 0.00 0.00 0.00 54 1007.0
20260509174505 22 88 8.0 16.1 0.00 0.00 0.00 54 1007.1
20260509174006 22 84 9.7 16.1 0.00 0.00 0.00 53 1007.0
20260509173506 22 84 9.7 12.9 0.00 0.00 0.00 53 1006.9
20260509173006 23 83 6.4 11.3 0.00 0.00 0.00 54 1007.1
20260509172506 23 90 4.8 11.3 0.00 0.00 0.00 52 1007.0
20260509172006 23 102 8.0 12.9 0.00 0.00 0.00 51 1007.1
20260509171006 23 91 8.0 12.9 0.00 0.00 0.00 51 1007.1
20260509170505 23 101 8.0 12.9 0.00 0.00 0.00 51 1006.8
20260509170005 23 95 4.8 11.3 0.00 0.00 0.00 54 1007.1
20260509165005 23 70 4.8 14.5 0.00 0.00 0.00 54 1006.9
20260509164506 23 72 8.0 16.1 0.00 0.00 0.00 53 1007.1
20260509164006 23 57 8.0 22.5 0.00 0.00 0.00 52 1007.2
20260509163505 23 71 14.5 22.5 0.00 0.00 0.00 51 1007.1
20260509163006 23 75 9.7 19.3 0.00 0.00 0.00 51 1007.0
20260509162505 23 107 8.0 12.9 0.00 0.00 0.00 48 1007.3
20260509162006 24 116 6.4 14.5 0.00 0.00 0.00 47 1007.3
20260509161505 24 83 8.0 11.3 0.00 0.00 0.00 49 1007.2
20260509161006 23 107 4.8 11.3 0.00 0.00 0.00 51 1007.3
20260509160505 23 119 9.7 14.5 0.00 0.00 0.00 51 1007.1
20260509160005 23 98 4.8 16.1 0.00 0.00 0.00 52 1007.3
20260509155506 23 84 11.3 16.1 0.00 0.00 0.00 50 1007.5
20260509155006 23 101 9.7 16.1 0.00 0.00 0.00 50 1007.4
20260509154506 23 101 6.4 14.5 0.00 0.00 0.00 50 1007.5
20260509154006 23 95 9.7 14.5 0.00 0.00 0.00 50 1007.2
20260509153006 23 124 14.5 20.9 0.00 0.00 0.00 49 1007.5
20260509152505 23 113 9.7 20.9 0.00 0.00 0.00 50 1007.4
20260509151506 23 125 9.7 14.5 0.00 0.00 0.00 52 1007.4
20260509151006 23 115 8.0 16.1 0.00 0.00 0.00 52 1007.4
20260509150505 23 90 12.9 19.3 0.00 0.00 0.00 53 1007.6
20260509150006 23 82 8.0 19.3 0.00 0.00 0.00 55 1007.6
20260509145506 22 51 3.2 11.3 0.00 0.00 0.00 56 1007.7
20260509145005 22 57 6.4 14.5 0.00 0.00 0.00 56 1007.7
20260509144505 22 52 3.2 14.5 0.00 0.00 0.00 57 1007.8
20260509144006 23 61 4.8 14.5 0.00 0.00 0.00 57 1007.6
20260509143506 23 53 8.0 14.5 0.00 0.00 0.00 56 1007.8
20260509143006 23 68 6.4 16.1 0.00 0.00 0.00 56 1007.8
20260509142506 23 65 4.8 19.3 0.00 0.00 0.00 53 1007.8
20260509142006 24 72 4.8 14.5 0.00 0.00 0.00 54 1008.2
20260509140506 23 30 4.8 11.3 0.00 0.00 0.00 54 1008.0
20260509140006 22 100 4.8 16.1 0.00 0.00 0.00 55 1008.4
20260509135006 23 151 8.0 12.9 0.00 0.00 0.00 54 1008.3
20260509134506 23 90 11.3 16.1 0.00 0.00 0.00 54 1008.4
20260509134006 24 84 8.0 14.5 0.00 0.00 0.00 52 1008.4
20260509133506 23 72 8.0 16.1 0.00 0.00 0.00 53 1008.4
20260509133006 22 61 4.8 14.5 0.00 0.00 0.00 56 1008.5
20260509132007 24 90 3.2 9.7 0.00 0.00 0.00 53 1008.6
20260509131506 23 74 4.8 14.5 0.00 0.00 0.00 56 1008.5
20260509130506 23 15 6.4 19.3 0.00 0.00 0.00 56 1008.4
20260509130006 23 30 4.8 16.1 0.00 0.00 0.00 56 1008.6
20260509125006 23 12 4.8 11.3 0.00 0.00 0.00 56 1008.6
20260509124506 22 63 4.8 12.9 0.00 0.00 0.00 59 1008.7
20260509124006 22 103 4.8 12.9 0.00 0.00 0.00 58 1008.7
20260509123506 22 118 8.0 16.1 0.00 0.00 0.00 58 1008.7
20260509123006 22 129 4.8 16.1 0.00 0.00 0.00 58 1008.8
20260509122506 22 19 6.4 16.1 0.00 0.00 0.00 59 1008.7
20260509122007 22 58 6.4 16.1 0.00 0.00 0.00 61 1008.7
20260509121506 22 40 4.8 12.9 0.00 0.00 0.00 60 1008.7
20260509121006 22 81 4.8 12.9 0.00 0.00 0.00 60 1008.9
20260509120506 22 17 6.4 14.5 0.00 0.00 0.00 62 1009.2
20260509120006 21 45 4.8 16.1 0.00 0.00 0.00 62 1008.9
20260509115506 21 62 8.0 16.1 0.00 0.00 0.00 61 1009.2
20260509115006 22 82 4.8 12.9 0.00 0.00 0.00 61 1009.2
20260509114506 22 67 6.4 12.9 0.00 0.00 0.00 63 1009.1
20260509114006 22 44 8.0 20.9 0.00 0.00 0.00 62 1009.3
20260509113506 22 70 8.0 16.1 0.00 0.00 0.00 61 1009.2
20260509113007 21 20 4.8 14.5 0.00 0.00 0.00 61 1009.3
20260509112006 21 80 8.0 19.3 0.00 0.00 0.00 65 1009.3
20260509111007 21 47 4.8 14.5 0.00 0.00 0.00 63 1009.5
20260509110506 21 75 9.7 19.3 0.00 0.00 0.00 63 1009.6
20260509105505 21 52 6.4 20.9 0.00 0.00 0.00 63 1009.7
20260509105007 21 71 9.7 19.3 0.00 0.00 0.00 62 1009.6
20260509104506 21 31 6.4 20.9 0.00 0.00 0.00 64 1009.8
20260509104006 20 15 8.0 20.9 0.00 0.00 0.00 64 1009.8
20260509103506 21 25 6.4 16.1 0.00 0.00 0.00 64 1009.9
20260509102506 21 85 4.8 12.9 0.00 0.00 0.00 64 1010.0
20260509102007 20 52 8.0 12.9 0.00 0.00 0.00 64 1010.1
20260509101506 20 52 8.0 20.9 0.00 0.00 0.00 64 1010.1
20260509101006 20 60 8.0 14.5 0.00 0.00 0.00 65 1010.1
20260509100506 20 57 3.2 11.3 0.00 0.00 0.00 65 1010.0
20260509100006 20 16 3.2 9.7 0.00 0.00 0.00 65 1010.1
20260509095505 20 68 6.4 12.9 0.00 0.00 0.00 65 1009.9
20260509095005 19 77 4.8 12.9 0.00 0.00 0.00 66 1009.9
20260509094505 20 76 4.8 12.9 0.00 0.00 0.00 65 1010.0
20260509094006 18 75 3.2 9.7 0.00 0.00 0.00 67 1010.2
20260509093505 18 11 4.8 11.3 0.00 0.00 0.00 69 1010.0
20260509093005 18 157 3.2 12.9 0.00 0.00 0.00 68 1010.0
20260509092505 18 139 8.0 16.1 0.00 0.00 0.00 68 1010.2
20260509092005 18 63 6.4 16.1 0.00 0.00 0.00 67 1010.3
20260509091506 18 136 4.8 9.7 0.00 0.00 0.00 66 1010.4
20260509091005 18 107 4.8 12.9 0.00 0.00 0.00 66 1010.4
20260509090506 19 114 4.8 12.9 0.00 0.00 0.00 65 1010.2
20260509085505 18 164 6.4 12.9 0.00 0.00 0.00 68 1010.3
20260509084505 17 98 9.7 14.5 0.00 0.00 0.00 68 1010.1
20260509084005 17 73 8.0 12.9 0.00 0.00 0.00 67 1010.3
20260509083006 18 154 6.4 11.3 0.00 0.00 0.00 67 1010.2
20260509082505 17 99 3.2 14.5 0.00 0.00 0.00 69 1010.6
20260509082006 17 72 9.7 14.5 0.00 0.00 0.00 69 1010.3
20260509081505 17 86 8.0 16.1 0.00 0.00 0.00 69 1010.5
20260509081005 16 97 6.4 16.1 0.00 0.00 0.00 71 1010.5
20260509080505 17 74 9.7 14.5 0.00 0.00 0.00 69 1010.4
20260509075506 17 69 4.8 11.3 0.00 0.00 0.00 68 1010.8
20260509075005 17 76 4.8 14.5 0.00 0.00 0.00 69 1010.6
20260509074505 16 68 8.0 12.9 0.00 0.00 0.00 69 1010.8
20260509074006 17 52 4.8 9.7 0.00 0.00 0.00 69 1010.8
20260509073006 16 99 8.0 12.9 0.00 0.00 0.00 70 1010.7
20260509072505 16 66 4.8 11.3 0.00 0.00 0.00 69 1010.6
20260509071505 16 35 4.8 9.7 0.00 0.00 0.00 69 1010.5
20260509071006 16 46 4.8 9.7 0.00 0.00 0.00 70 1010.5
20260509070505 17 119 3.2 8.0 0.00 0.00 0.00 66 1010.6
20260509070005 16 90 3.2 8.0 0.00 0.00 0.00 68 1010.5
20260509065505 16 0 3.2 8.0 0.00 0.00 0.00 69 1010.8
20260509065005 16 78 3.2 9.7 0.00 0.00 0.00 69 1010.6
20260509064006 15 83 3.2 9.7 0.00 0.00 0.00 70 1010.8
20260509063505 15 67 4.8 9.7 0.00 0.00 0.00 71 1010.9
20260509063005 15 74 3.2 8.0 0.00 0.00 0.00 72 1010.7
20260509062505 15 74 3.2 8.0 0.00 0.00 0.00 71 1010.9
20260509062006 16 119 1.6 4.8 0.00 0.00 0.00 69 1010.8
20260509061505 14 297 0.0 3.2 0.00 0.00 0.00 74 1010.7
20260509061005 14 192 0.0 3.2 0.00 0.00 0.00 77 1010.6
20260509060505 13 71 1.6 4.8 0.00 0.00 0.00 77 1010.6
20260509060006 13 123 1.6 9.7 0.00 0.00 0.00 80 1010.4
20260509055505 12 82 4.8 12.9 0.00 0.00 0.00 80 1010.3